When you browse on this site, cookies collect data to enhance your experience and personalize the content and advertising you see.
Visit our Privacy Policy to learn more. By continuing to use the site, you agree to this use of cookies and data.
  • In Netherlands
  • List of Countries
  • For 7 days
  • Water Temperature
  • Satellite Maps
  • Weather Map
  • Weather Widgets
  • user-avatar
    Login

    Hourly Weather Shumen

    Today, 17 July, Wednesday

    Time Temperature Precipitation Wind Pressure Humidity
    00:00 +16°C° 0 mm 1 mps 727 mmHg 78%
    01:00 +16°C° 0 mm 1 mps 726 mmHg 77%
    02:00 +15°C° 0 mm 1 mps 726 mmHg 77%
    03:00 +15°C° 0 mm 1 mps 726 mmHg 76%
    04:00 +14°C° 0 mm 1 mps 726 mmHg 74%
    05:00 +14°C° 0 mm 1 mps 726 mmHg 73%
    06:00 +16°C° 0 mm 1 mps 726 mmHg 67%
    07:00 +18°C° 0 mm 2 mps 727 mmHg 61%
    08:00 +21°C° 0 mm 2 mps 727 mmHg 55%
    09:00 +23°C° 0 mm 2 mps 727 mmHg 51%
    10:00 +25°C° 0 mm 3 mps 727 mmHg 47%
    11:00 +26°C° 0 mm 4 mps 727 mmHg 43%
    12:00 +26°C° 0 mm 4 mps 727 mmHg 43%
    13:00 +27°C° 0 mm 3 mps 727 mmHg 42%
    14:00 +27°C° 0 mm 3 mps 726 mmHg 41%
    15:00 +27°C° 0 mm 3 mps 726 mmHg 42%
    16:00 +27°C° 0 mm 3 mps 726 mmHg 43%
    17:00 +27°C° 0 mm 3 mps 726 mmHg 43%
    18:00 +25°C° 0 mm 2 mps 726 mmHg 49%
    19:00 +23°C° 0 mm 2 mps 726 mmHg 54%
    20:00 +21°C° 0 mm 1 mps 726 mmHg 60%
    21:00 +20°C° 0 mm 1 mps 726 mmHg 63%
    22:00 +17°C° 0 mm 0 mps 726 mmHg 67%
    23:00 +16°C° 0 mm 0 mps 726 mmHg 71%

    Tomorrow, 18 July, Thursday

    Time Temperature Precipitation Wind Pressure Humidity
    00:00 +18°C° 0 mm 1 mps 726 mmHg 72%
    01:00 +18°C° 0 mm 1 mps 726 mmHg 73%
    02:00 +16°C° 0 mm 1 mps 726 mmHg 75%
    03:00 +16°C° 0 mm 1 mps 726 mmHg 77%
    04:00 +16°C° 0 mm 1 mps 726 mmHg 79%
    05:00 +15°C° 0 mm 2 mps 726 mmHg 81%
    06:00 +17°C° 0 mm 2 mps 726 mmHg 75%
    07:00 +19°C° 0 mm 3 mps 727 mmHg 69%
    08:00 +20°C° 0 mm 3 mps 727 mmHg 64%
    09:00 +22°C° 0 mm 3 mps 728 mmHg 59%
    10:00 +25°C° 0 mm 3 mps 728 mmHg 54%
    11:00 +26°C° 0 mm 3 mps 729 mmHg 49%
    12:00 +27°C° 0 mm 3 mps 729 mmHg 46%
    13:00 +28°C° 0 mm 2 mps 729 mmHg 43%
    14:00 +28°C° 0 mm 2 mps 729 mmHg 40%
    15:00 +28°C° 0 mm 2 mps 729 mmHg 42%
    16:00 +28°C° 0 mm 2 mps 729 mmHg 43%
    17:00 +27°C° 0 mm 2 mps 729 mmHg 45%
    18:00 +25°C° 0 mm 2 mps 729 mmHg 53%
    19:00 +23°C° 0 mm 1 mps 729 mmHg 61%
    20:00 +21°C° 0 mm 1 mps 729 mmHg 68%
    21:00 +20°C° 0 mm 1 mps 729 mmHg 72%
    22:00 +19°C° 0 mm 1 mps 729 mmHg 75%
    23:00 +19°C° 0 mm 1 mps 730 mmHg 79%

    Day after tomorrow, 19 July, Friday

    Time Temperature Precipitation Wind Pressure Humidity
    00:00 +18°C° 0 mm 1 mps 730 mmHg 80%
    01:00 +18°C° 0 mm 1 mps 730 mmHg 82%
    02:00 +16°C° 0 mm 1 mps 730 mmHg 84%
    03:00 +16°C° 0 mm 1 mps 730 mmHg 84%
    04:00 +16°C° 0 mm 1 mps 730 mmHg 84%
    05:00 +16°C° 0 mm 1 mps 730 mmHg 85%
    06:00 +19°C° 0 mm 1 mps 730 mmHg 76%
    07:00 +21°C° 0 mm 1 mps 731 mmHg 67%
    08:00 +24°C° 0 mm 1 mps 731 mmHg 58%
    09:00 +25°C° 0 mm 2 mps 732 mmHg 52%
    10:00 +27°C° 0 mm 2 mps 732 mmHg 45%
    11:00 +28°C° 0 mm 2 mps 732 mmHg 38%
    12:00 +29°C° 0 mm 2 mps 732 mmHg 36%
    13:00 +30°C° 0 mm 2 mps 732 mmHg 34%
    14:00 +30°C° 0 mm 2 mps 732 mmHg 32%
    15:00 +30°C° 0 mm 3 mps 732 mmHg 35%
    16:00 +29°C° 0 mm 4 mps 731 mmHg 37%
    17:00 +29°C° 0 mm 5 mps 731 mmHg 39%
    18:00 +26°C° 0 mm 4 mps 731 mmHg 46%
    19:00 +24°C° 0 mm 3 mps 731 mmHg 53%
    20:00 +21°C° 0 mm 3 mps 731 mmHg 61%
    21:00 +20°C° 0 mm 2 mps 731 mmHg 65%
    22:00 +19°C° 0 mm 2 mps 732 mmHg 69%
    23:00 +18°C° 0 mm 2 mps 732 mmHg 73%

    20 July, Saturday

    Time Temperature Precipitation Wind Pressure Humidity
    00:00 +18°C° 0 mm 1 mps 732 mmHg 74%
    01:00 +18°C° 0 mm 1 mps 732 mmHg 74%
    02:00 +16°C° 0 mm 1 mps 732 mmHg 75%
    03:00 +16°C° 0 mm 1 mps 732 mmHg 74%
    04:00 +16°C° 0 mm 1 mps 731 mmHg 72%
    05:00 +15°C° 0 mm 0 mps 731 mmHg 70%
    06:00 +19°C° 0 mm 1 mps 732 mmHg 62%
    07:00 +22°C° 0 mm 1 mps 732 mmHg 54%
    08:00 +24°C° 0 mm 1 mps 733 mmHg 46%
    09:00 +26°C° 0 mm 2 mps 733 mmHg 42%
    10:00 +27°C° 0 mm 2 mps 733 mmHg 39%
    11:00 +29°C° 0 mm 3 mps 733 mmHg 36%
    12:00 +30°C° 0 mm 3 mps 733 mmHg 35%
    13:00 +30°C° 0 mm 3 mps 733 mmHg 33%
    14:00 +31°C° 0 mm 3 mps 733 mmHg 32%
    15:00 +31°C° 0 mm 3 mps 733 mmHg 34%
    16:00 +30°C° 0 mm 3 mps 733 mmHg 36%
    17:00 +30°C° 0 mm 4 mps 733 mmHg 37%
    18:00 +27°C° 0 mm 3 mps 733 mmHg 43%
    19:00 +24°C° 0 mm 3 mps 733 mmHg 48%
    20:00 +21°C° 0 mm 2 mps 733 mmHg 53%
    21:00 +20°C° 0 mm 2 mps 733 mmHg 56%
    22:00 +20°C° 0 mm 1 mps 733 mmHg 58%
    23:00 +19°C° 0 mm 1 mps 733 mmHg 60%

    21 July, Sunday

    Time Temperature Precipitation Wind Pressure Humidity
    00:00 +19°C° 0 mm 1 mps 733 mmHg 60%
    01:00 +16°C° 0 mm 0 mps 733 mmHg 60%
    02:00 +16°C° 0 mm 0 mps 732 mmHg 60%
    03:00 +16°C° 0 mm 0 mps 732 mmHg 60%
    04:00 +16°C° 0 mm 0 mps 732 mmHg 60%
    05:00 +16°C° 0 mm 0 mps 732 mmHg 60%
    06:00 +18°C° 0 mm 0 mps 732 mmHg 54%
    07:00 +21°C° 0 mm 0 mps 733 mmHg 48%
    08:00 +23°C° 0 mm 0 mps 733 mmHg 42%
    09:00 +27°C° 0 mm 1 mps 733 mmHg 38%
    10:00 +29°C° 0 mm 1 mps 734 mmHg 33%
    11:00 +31°C° 0 mm 1 mps 734 mmHg 29%
    12:00 +31°C° 0 mm 2 mps 734 mmHg 29%
    13:00 +32°C° 0 mm 2 mps 733 mmHg 29%
    14:00 +34°C° 0 mm 2 mps 733 mmHg 28%
    15:00 +32°C° 0 mm 2 mps 733 mmHg 30%
    16:00 +32°C° 0 mm 2 mps 733 mmHg 31%
    17:00 +32°C° 0 mm 2 mps 733 mmHg 32%
    18:00 +29°C° 0 mm 2 mps 733 mmHg 38%
    19:00 +27°C° 0 mm 2 mps 732 mmHg 44%
    20:00 +24°C° 0 mm 2 mps 732 mmHg 50%
    21:00 +23°C° 0 mm 1 mps 732 mmHg 53%
    22:00 +22°C° 0 mm 1 mps 732 mmHg 55%
    23:00 +21°C° 0 mm 1 mps 732 mmHg 57%

    22 July, Monday

    Time Temperature Precipitation Wind Pressure Humidity
    00:00 +21°C° 0 mm 1 mps 732 mmHg 58%
    01:00 +20°C° 0 mm 1 mps 732 mmHg 58%
    02:00 +18°C° 0 mm 0 mps 732 mmHg 58%
    03:00 +18°C° 0 mm 0 mps 732 mmHg 58%
    04:00 +20°C° 0 mm 1 mps 732 mmHg 58%
    05:00 +20°C° 0 mm 1 mps 731 mmHg 58%
    06:00 +22°C° 0 mm 1 mps 732 mmHg 54%
    07:00 +25°C° 0 mm 1 mps 732 mmHg 50%
    08:00 +27°C° 0 mm 1 mps 732 mmHg 46%
    09:00 +29°C° 0 mm 1 mps 732 mmHg 42%
    10:00 +31°C° 0 mm 1 mps 732 mmHg 39%
    11:00 +33°C° 0 mm 1 mps 732 mmHg 35%
    12:00 +33°C° 0 mm 1 mps 732 mmHg 35%
    13:00 +34°C° 0 mm 2 mps 731 mmHg 35%
    14:00 +34°C° 0 mm 2 mps 731 mmHg 36%
    15:00 +32°C° 0 mm 2 mps 731 mmHg 37%
    16:00 +32°C° 0 mm 2 mps 731 mmHg 38%
    17:00 +31°C° 0 mm 2 mps 730 mmHg 40%
    18:00 +30°C° 0 mm 2 mps 730 mmHg 45%
    19:00 +28°C° 0 mm 2 mps 730 mmHg 49%
    20:00 +26°C° 0 mm 2 mps 730 mmHg 54%
    21:00 +25°C° 0 mm 2 mps 730 mmHg 55%
    22:00 +24°C° 0 mm 2 mps 730 mmHg 57%
    23:00 +23°C° 0 mm 2 mps 729 mmHg 58%
    Show more